Flag for United Kingdom Weather past 2 weeks in Aylesbury, England, United Kingdom

Now
48 °F

Cool.


Feels Like: 46 °F
Forecast: 45 / 62 °F
Wind: 5 mph from Northwest

Location: High Wicombe Hqstc

Current Time: May 25, 2015 at 8:44:12 AM

Latest Report: May 25, 2015 at 8:00 AM


Visibility: 13 mi

Pressure: 30.12 "Hg

Humidity: 82%

Dew point: 42 °F

Location of AylesburyLocation

Historic Weather in Aylesbury — Graph

°F

Aylesbury temperature yesterday

Maximum temperature yesterday: 63 °F (at 6:00 PM)
Minimum temperature yesterday: 49 °F (at 6:00 AM)
Average temperature yesterday: 56 °F

Past Weeks' High & Low Weather Summary

 TemperatureHumidityPressure
High66 °F (May 11, 5:00 PM)99% (May 18, 9:00 AM)30.37 "Hg (May 18, 9:00 AM)
Low39 °F (May 20, 4:00 AM)42% (May 21, 5:00 PM)29.56 "Hg (May 18, 1:00 PM)
Average51 °F76%30.09 "Hg
* Reported May 10 7:00 AM — May 25 7:00 AM, Aylesbury, Weather by CustomWeather, © 2015

Note: Actual official high and low records may vary slightly from our data, if they occured in-between our weather recording intervals... More about our weather records

Advertising

Aylesbury weather history for previous 24 hours

 ConditionsComfort  
Time TempWeatherWind HumidityBarometerVisibility
7:00 AM
Mon, May 25
46 °FCool.3 mph85%30.12 "Hg12 mi
6:00 AM44 °FQuite cool.2 mph90%30.13 "Hg10 mi
5:00 AM44 °FQuite cool.2 mph90%30.13 "Hg12 mi
4:00 AM43 °FQuite cool.2 mph89%30.12 "Hg15 mi
3:00 AM44 °FQuite cool.2 mph86%30.13 "Hg11 mi
2:00 AM47 °FCool.3 mph82%30.13 "Hg14 mi
1:00 AM49 °FCool.6 mph79%30.14 "Hg12 mi
12:00 AM51 °FCool.7 mph75%30.13 "Hg17 mi
11:00 PM
Sun, May 24
51 °FCool.8 mph80%30.12 "Hg15 mi
9:00 PM56 °FCool.7 mph83%30.08 "Hg14 mi
8:00 PM59 °FCool.6 mph82%30.07 "Hg9 mi
7:00 PM62 °FCool.3 mph76%30.06 "Hg22 mi
6:00 PM63 °FMild.5 mph77%30.06 "Hg15 mi
5:00 PM60 °FCool.6 mph79%30.07 "Hg11 mi
4:00 PM59 °FCool.6 mph86%30.09 "Hg9 mi
3:00 PM60 °FCool.6 mph79%30.09 "Hg16 mi
2:00 PM59 °FRain showers. Cloudy.6 mph79%30.09 "Hg11 mi
1:00 PM61 °FCool.6 mph73%30.09 "Hg17 mi
12:00 PM61 °FCool.5 mph71%30.11 "Hg14 mi
11:00 AM58 °FCool.3 mph79%30.12 "Hg16 mi
10:00 AM57 °FCool.5 mph76%30.13 "Hg19 mi
9:00 AM56 °FCool.6 mph70%30.12 "Hg11 mi
8:00 AM53 °FCool.7 mph77%30.13 "Hg14 mi
Weather by CustomWeather, © 2015

See weather overviewHow to use our weather pages